Flag for U.S.A. Weather past 2 weeks in Bellingham, Washington, U.S.A.

Now
52 °F

Light rain. Mostly cloudy.


Feels Like: 49 °F
Forecast: 51 / 63 °F
Wind: 7 mph from South

Location: Bellingham International Airport

Current Time: Sep 3, 2015 at 12:42:37 PM

Latest Report: Sep 3, 2015 at 12:00 PM


Visibility: 9 mi

Pressure: 30.02 "Hg

Humidity: 88%

Dew point: 48 °F

Location of BellinghamLocation

Historic Weather in Bellingham — Graph

°F

Bellingham temperature yesterday

Maximum temperature yesterday: 62 °F (at 12:53 PM)
Minimum temperature yesterday: 50 °F (at 4:53 AM)
Average temperature yesterday: 55 °F

Past Weeks' High & Low Weather Summary

 TemperatureHumidityPressure
High82 °F (Aug 19, 4:53 PM)97% (Aug 28, 2:53 AM)30.14 "Hg (Aug 28, 2:53 AM)
Low49 °F (Aug 25, 5:53 AM)31% (Aug 27, 2:53 PM)29.47 "Hg (Aug 29, 11:53 AM)
Average63 °F73%29.94 "Hg
* Reported Aug 19 10:53 AM — Sep 3 10:58 AM, Bellingham, Weather by CustomWeather, © 2015

Note: Actual official high and low records may vary slightly from our data, if they occured in-between our weather recording intervals... More about our weather records

Advertising

Bellingham weather history for previous 24 hours

 ConditionsComfort  
Time TempWeatherWind HumidityBarometerVisibility
10:58 AM
Thu, Sep 3
54 °FLight rain. Fog.3 mph94%30.01 "Hg6 mi
9:53 AM55 °FLight rain. Cloudy.9 mph83%30.02 "Hg5 mi
8:53 AM55 °FBroken clouds.7 mph80%30.02 "Hg10 mi
7:53 AM55 °FPartly sunny.6 mph87%30.01 "Hg10 mi
6:53 AM53 °FClear.5 mph86%30.00 "Hg10 mi
5:53 AM53 °FPassing clouds.3 mph86%29.99 "Hg10 mi
4:53 AM53 °FClear.6 mph86%29.98 "Hg10 mi
3:53 AM54 °FPassing clouds.5 mph80%29.97 "Hg10 mi
2:53 AM55 °FPassing clouds.7 mph74%29.96 "Hg10 mi
1:53 AM55 °FOvercast.7 mph77%29.96 "Hg10 mi
12:53 AM55 °FPassing clouds.8 mph74%29.95 "Hg10 mi
11:53 PM
Wed, Sep 2
56 °FOvercast.8 mph75%29.95 "Hg10 mi
10:53 PM56 °FMostly cloudy.8 mph75%29.95 "Hg10 mi
10:02 PM52 °FPartly cloudy.No wind88%29.94 "Hg10 mi
9:53 PM50 °FPassing clouds.No wind96%29.96 "Hg10 mi
8:53 PM50 °FPassing clouds.No wind96%29.95 "Hg10 mi
7:53 PM52 °FScattered clouds.No wind97%29.94 "Hg10 mi
6:53 PM56 °FScattered clouds.5 mph81%29.93 "Hg10 mi
5:53 PM54 °FLight rain. More clouds than sun.6 mph86%29.94 "Hg10 mi
4:53 PM55 °FCloudy.6 mph83%29.95 "Hg10 mi
3:53 PM54 °FBroken clouds.3 mph90%29.94 "Hg10 mi
2:53 PM54 °FMostly cloudy.7 mph90%29.91 "Hg10 mi
1:53 PM60 °FOvercast.13 mph65%29.91 "Hg10 mi
12:53 PM62 °FPartly sunny.9 mph67%29.90 "Hg10 mi
Weather by CustomWeather, © 2015

See weather overviewHow to use our weather pages